Tracking 28794 objects as of 19-Apr-2024
HD Live streaming from Space Station
objects crossing your sky now

IRIDIUM 140

Track IRIDIUM 140 now!
10-day predictions
IRIDIUM 140 is classified as:


NORAD ID: 43252
Int'l Code: 2018-030F
Perigee: 783.3 km
Apogee: 786.3 km
Inclination: 86.4 °
Period: 100.4 minutes
Semi major axis: 7155 km
RCS: Unknown
Launch date: March 30, 2018
Source: United States (US)
Launch site: AIR FORCE WESTERN TEST RANGE (AFWTR)
Your satellite tracking list
Your tracking list is empty




NASA's NSSDC Master Catalog

Two Line Element Set (TLE):
1 43252U 18030D   24110.47211691  .00000975  00000-0  34105-3 0  9994
2 43252  86.3938 260.0234 0002092  80.7063 279.4369 14.34217163317147
Source of the keplerian elements: AFSPC